Ленское

Россия / Свердловская область     58°09′20″N   63°11′59″E
темп.,
°C
ветер,
м/с
пор.,
м/с
влажн.,
%
обл.,
%
осадки,
мм/ч
давл.,
гПа
погр.,
м
18 мая, вт
вт1823:00+17юз388358 1.8 1012228
02:00+16сз227728 0.2 101134
05:00+16сз247926 0.2 1012102
08:00+18с3570100 0.5 1013499
11:00+18с6669100 1.0 10151008
14:00+16с577199 0.1 1018980
17:00+16ссв5758100 0.2 10191389
20:00+14ссв5862100 0.0 10211349
19 мая, ср
ср1923:00+11ссв377217 0.0 1023393
02:00+8ссв25864 0.0 1024102
05:00+8ссв25864 0.0 1025107
08:00+13ссв355746 0.0 1026703
11:00+17ссв344031 0.0 10261472
14:00+19ссв3436100 0.0 10251852
17:00+20ссв34345 0.0 10242058
20:00+17всв234974 0.0 102454
20 мая, чт
чт2023:00+12вюв22588 0.0 102521
02:00+11ю226549 0.0 102536
05:00+10ююз256998 0.0 1025100
08:00+16юз365196 0.0 1024375
11:00+22зюз57365 0.0 10221331
14:00+26з56285 0.0 10201986
17:00+27зсз46255 0.0 10192152
20:00+22зюз33432 0.0 101946
21 мая, пт
пт2123:00+17з22515 0.0 102031
02:00+15з225713 0.0 102030
05:00+14з23635 0.0 102046
08:00+20з244642 0.0 1021269
11:00+26зюз23315 0.0 10201203
14:00+28зюз342577 0.0 10192196
17:00+29зюз35235 0.0 10182433
20:00+24юз22405 0.0 101814
22 мая, сб
сб2223:00+19ююз313485 0.0 1019245
02:00+16юз23585 0.0 101946
05:00+15юз22614 0.0 101931
08:00+21юз35440 0.0 1019347
11:00+26юз69355 0.0 10181721
14:00+28зюз6103058 0.0 10163270
17:00+27зюз51129100 0.0 10163093
20:00+23з51143100 0.0 1017911